• In Hungary
  • List of Countries
  • For 7 days
  • Water Temperature
  • Satellite Maps
  • Weather Map
  • News
  • Weather Widgets
  • user-avatar
    Login

    Hourly Weather Guvlig

    Today, 16 July, Monday

    Time Temperature Precipitation Wind Pressure Humidity
    00:00 +20°C° 0 mm 2 mps 654 mmHg 70%
    01:00 +19°C° 0 mm 2 mps 654 mmHg 69%
    02:00 +19°C° 0 mm 2 mps 654 mmHg 69%
    03:00 +19°C° 0 mm 2 mps 654 mmHg 68%
    04:00 +19°C° 0 mm 2 mps 655 mmHg 68%
    05:00 +20°C° 0 mm 2 mps 655 mmHg 67%
    06:00 +21°C° 0 mm 2 mps 655 mmHg 66%
    07:00 +22°C° 0 mm 3 mps 656 mmHg 64%
    08:00 +24°C° 0 mm 3 mps 656 mmHg 62%
    09:00 +26°C° 0 mm 4 mps 657 mmHg 59%
    10:00 +26°C° 0.6 mm 4 mps 657 mmHg 60%
    11:00 +26°C° 0.6 mm 4 mps 657 mmHg 60%
    12:00 +26°C° 0.6 mm 5 mps 657 mmHg 61%
    13:00 +25°C° 1.4 mm 4 mps 656 mmHg 62%
    14:00 +25°C° 1.4 mm 4 mps 656 mmHg 64%
    15:00 +23°C° 1.4 mm 4 mps 656 mmHg 65%
    16:00 +24°C° 0.3 mm 3 mps 656 mmHg 67%
    17:00 +22°C° 0.3 mm 3 mps 656 mmHg 68%
    18:00 +23°C° 0.3 mm 2 mps 656 mmHg 70%
    19:00 +20°C° 0.1 mm 2 mps 656 mmHg 72%
    20:00 +19°C° 0.1 mm 2 mps 656 mmHg 75%
    21:00 +18°C° 0.1 mm 2 mps 657 mmHg 78%
    22:00 +18°C° 0.1 mm 2 mps 657 mmHg 77%
    23:00 +18°C° 0.1 mm 2 mps 657 mmHg 75%

    Tomorrow, 17 July, Tuesday

    Time Temperature Precipitation Wind Pressure Humidity
    00:00 +18°C° 0.1 mm 2 mps 657 mmHg 74%
    01:00 +17°C° 0 mm 2 mps 657 mmHg 73%
    02:00 +17°C° 0 mm 2 mps 657 mmHg 72%
    03:00 +16°C° 0 mm 2 mps 657 mmHg 71%
    04:00 +17°C° 0 mm 2 mps 657 mmHg 69%
    05:00 +18°C° 0 mm 2 mps 658 mmHg 68%
    06:00 +19°C° 0 mm 2 mps 658 mmHg 67%
    07:00 +20°C° 0 mm 2 mps 658 mmHg 63%
    08:00 +21°C° 0 mm 2 mps 659 mmHg 59%
    09:00 +24°C° 0 mm 2 mps 659 mmHg 55%
    10:00 +24°C° 0.1 mm 3 mps 659 mmHg 55%
    11:00 +25°C° 0.1 mm 3 mps 659 mmHg 55%
    12:00 +26°C° 0.1 mm 3 mps 659 mmHg 55%
    13:00 +26°C° 0.3 mm 4 mps 659 mmHg 56%
    14:00 +26°C° 0.3 mm 4 mps 658 mmHg 58%
    15:00 +25°C° 0.3 mm 4 mps 658 mmHg 59%
    16:00 +25°C° 0.1 mm 3 mps 658 mmHg 63%
    17:00 +24°C° 0.1 mm 3 mps 658 mmHg 68%
    18:00 +22°C° 0.1 mm 3 mps 658 mmHg 72%
    19:00 +21°C° 0.1 mm 2 mps 658 mmHg 77%
    20:00 +19°C° 0.1 mm 2 mps 658 mmHg 82%
    21:00 +19°C° 0.1 mm 1 mps 658 mmHg 87%
    22:00 +19°C° 0 mm 1 mps 658 mmHg 84%
    23:00 +19°C° 0 mm 1 mps 658 mmHg 80%

    Day after tomorrow, 18 July, Wednesday

    Time Temperature Precipitation Wind Pressure Humidity
    00:00 +18°C° 0 mm 2 mps 658 mmHg 77%
    01:00 +18°C° 0 mm 2 mps 658 mmHg 74%
    02:00 +17°C° 0 mm 2 mps 658 mmHg 70%
    03:00 +17°C° 0 mm 2 mps 657 mmHg 67%
    04:00 +18°C° 0 mm 2 mps 658 mmHg 65%
    05:00 +19°C° 0 mm 2 mps 658 mmHg 64%
    06:00 +21°C° 0 mm 1 mps 658 mmHg 62%
    07:00 +21°C° 0 mm 2 mps 658 mmHg 59%
    08:00 +24°C° 0 mm 2 mps 659 mmHg 56%
    09:00 +26°C° 0 mm 2 mps 659 mmHg 53%
    10:00 +27°C° 0 mm 3 mps 659 mmHg 52%
    11:00 +27°C° 0 mm 3 mps 659 mmHg 50%
    12:00 +28°C° 0 mm 4 mps 659 mmHg 49%
    13:00 +28°C° 0 mm 3 mps 659 mmHg 50%
    14:00 +28°C° 0 mm 3 mps 658 mmHg 51%
    15:00 +28°C° 0 mm 3 mps 658 mmHg 52%
    16:00 +27°C° 0 mm 3 mps 658 mmHg 56%
    17:00 +26°C° 0 mm 2 mps 658 mmHg 60%
    18:00 +25°C° 0 mm 2 mps 658 mmHg 64%
    19:00 +24°C° 0 mm 1 mps 657 mmHg 66%
    20:00 +22°C° 0 mm 1 mps 657 mmHg 68%
    21:00 +21°C° 0 mm 1 mps 657 mmHg 70%
    22:00 +21°C° 0 mm 1 mps 657 mmHg 66%
    23:00 +20°C° 0 mm 2 mps 657 mmHg 62%

    19 July, Thursday

    Time Temperature Precipitation Wind Pressure Humidity
    00:00 +20°C° 0 mm 2 mps 657 mmHg 58%
    01:00 +20°C° 0 mm 2 mps 657 mmHg 56%
    02:00 +20°C° 0 mm 2 mps 657 mmHg 54%
    03:00 +20°C° 0 mm 2 mps 657 mmHg 52%
    04:00 +21°C° 0 mm 2 mps 657 mmHg 52%
    05:00 +21°C° 0 mm 2 mps 657 mmHg 52%
    06:00 +23°C° 0 mm 2 mps 657 mmHg 53%
    07:00 +25°C° 0 mm 2 mps 658 mmHg 49%
    08:00 +27°C° 0 mm 2 mps 658 mmHg 46%
    09:00 +29°C° 0 mm 2 mps 659 mmHg 43%
    10:00 +30°C° 0 mm 3 mps 658 mmHg 42%
    11:00 +30°C° 0 mm 3 mps 658 mmHg 42%
    12:00 +31°C° 0 mm 3 mps 658 mmHg 42%
    13:00 +31°C° 0 mm 3 mps 658 mmHg 43%
    14:00 +31°C° 0 mm 3 mps 658 mmHg 44%
    15:00 +31°C° 0 mm 3 mps 658 mmHg 45%
    16:00 +30°C° 0 mm 2 mps 658 mmHg 50%
    17:00 +29°C° 0 mm 2 mps 658 mmHg 55%
    18:00 +28°C° 0 mm 1 mps 658 mmHg 59%
    19:00 +26°C° 0 mm 1 mps 657 mmHg 63%
    20:00 +25°C° 0 mm 1 mps 657 mmHg 66%
    21:00 +23°C° 0 mm 1 mps 657 mmHg 70%
    22:00 +23°C° 0 mm 2 mps 657 mmHg 67%
    23:00 +23°C° 0 mm 2 mps 657 mmHg 63%

    20 July, Friday

    Time Temperature Precipitation Wind Pressure Humidity
    00:00 +23°C° 0 mm 2 mps 657 mmHg 60%
    01:00 +23°C° 0 mm 2 mps 657 mmHg 58%
    02:00 +23°C° 0 mm 2 mps 657 mmHg 55%
    03:00 +23°C° 0 mm 2 mps 657 mmHg 53%
    04:00 +23°C° 0 mm 2 mps 657 mmHg 54%
    05:00 +24°C° 0 mm 2 mps 658 mmHg 54%
    06:00 +25°C° 0 mm 1 mps 658 mmHg 55%
    07:00 +26°C° 0 mm 2 mps 658 mmHg 52%
    08:00 +28°C° 0 mm 2 mps 659 mmHg 49%
    09:00 +30°C° 0 mm 3 mps 659 mmHg 46%
    10:00 +30°C° 0 mm 3 mps 659 mmHg 45%
    11:00 +31°C° 0 mm 3 mps 659 mmHg 44%
    12:00 +33°C° 0 mm 4 mps 659 mmHg 43%
    13:00 +31°C° 0.1 mm 3 mps 659 mmHg 44%
    14:00 +31°C° 0.1 mm 3 mps 658 mmHg 45%
    15:00 +31°C° 0.1 mm 3 mps 658 mmHg 47%
    16:00 +30°C° 0.1 mm 3 mps 658 mmHg 50%
    17:00 +29°C° 0.1 mm 2 mps 658 mmHg 54%
    18:00 +28°C° 0.1 mm 1 mps 657 mmHg 57%
    19:00 +26°C° 0 mm 1 mps 657 mmHg 61%
    20:00 +25°C° 0 mm 1 mps 657 mmHg 66%
    21:00 +23°C° 0 mm 1 mps 657 mmHg 70%
    22:00 +23°C° 0 mm 1 mps 657 mmHg 70%
    23:00 +23°C° 0 mm 2 mps 657 mmHg 69%

    21 July, Saturday

    Time Temperature Precipitation Wind Pressure Humidity
    00:00 +23°C° 0 mm 2 mps 656 mmHg 68%
    01:00 +23°C° 0 mm 2 mps 656 mmHg 67%
    02:00 +23°C° 0 mm 2 mps 656 mmHg 65%
    03:00 +23°C° 0 mm 2 mps 656 mmHg 64%
    04:00 +23°C° 0 mm 2 mps 657 mmHg 63%
    05:00 +24°C° 0 mm 2 mps 657 mmHg 62%
    06:00 +25°C° 0 mm 2 mps 657 mmHg 62%
    07:00 +27°C° 0 mm 2 mps 658 mmHg 56%
    08:00 +28°C° 0 mm 2 mps 658 mmHg 51%
    09:00 +29°C° 0 mm 3 mps 658 mmHg 46%
    10:00 +30°C° 0 mm 3 mps 658 mmHg 45%
    11:00 +32°C° 0 mm 4 mps 658 mmHg 44%
    12:00 +32°C° 0 mm 4 mps 658 mmHg 43%
    13:00 +32°C° 0.1 mm 4 mps 658 mmHg 44%
    14:00 +32°C° 0.1 mm 4 mps 658 mmHg 45%
    15:00 +32°C° 0.1 mm 4 mps 658 mmHg 45%
    16:00 +30°C° 0.2 mm 3 mps 657 mmHg 49%
    17:00 +29°C° 0.2 mm 3 mps 657 mmHg 52%
    18:00 +28°C° 0.2 mm 2 mps 657 mmHg 55%
    19:00 +26°C° 0.1 mm 2 mps 657 mmHg 60%
    20:00 +24°C° 0.1 mm 2 mps 657 mmHg 65%
    21:00 +23°C° 0.1 mm 2 mps 657 mmHg 70%
    22:00 +23°C° 0 mm 2 mps 657 mmHg 70%
    23:00 +21°C° 0 mm 3 mps 657 mmHg 70%
    Show more